Location: Skymont Scout Reservation
(35.4344°N, 85.8742°W)
Time: 15:04:32
(UTC-05:00)

ISS - All Passes

Search period start: 30 March 2015 00:00
Search period end: 09 April 2015 00:00
Orbit: 396 x 405 km, 51.6° (Epoch: 30 March)

Date Brightness Start Highest point End Pass type
(mag) Time Alt. Az. Time Alt. Az. Time Alt. Az.
30 Mar - 04:34:09 10° NNW 04:36:30 18° NNE 04:38:53 10° ENE visible
30 Mar - 06:10:00 10° WNW 06:13:04 41° SW 06:16:06 10° SSE daylight
30 Mar - 21:10:57 10° S 21:13:34 23° SE 21:16:14 10° ENE night (unlit)
30 Mar - 22:47:00 10° W 22:49:53 28° NW 22:52:46 10° NNE night (unlit)
31 Mar - 03:41:34 10° N 03:42:49 12° NNE 03:44:09 10° NE visible
31 Mar - 05:16:28 10° NW 05:19:42 82° NE 05:22:54 10° SE visible
31 Mar - 20:19:31 10° SE 20:20:17 11° SE 20:21:11 10° ESE visible
31 Mar - 21:53:08 10° WSW 21:56:21 57° NW 21:59:34 10° NE night (unlit)
01 Apr - 04:23:09 10° NNW 04:26:12 37° NE 04:29:14 10° ESE visible
01 Apr - 06:00:16 10° W 06:02:23 16° SW 06:04:26 10° S visible
01 Apr - 20:59:40 10° SW 21:02:54 62° SE 21:06:08 10° NE visible
01 Apr - 22:37:33 10° WNW 22:39:35 15° NNW 22:41:35 10° N night (unlit)
02 Apr - 03:30:03 10° NNW 03:32:35 21° NNE 03:35:07 10° E visible
02 Apr - 05:06:04 10° WNW 05:09:03 34° SW 05:12:00 10° SSE visible
02 Apr - 20:06:42 10° S 20:09:29 27° SE 20:12:19 10° ENE visible
02 Apr - 21:43:05 10° W 21:45:52 25° NNW 21:48:38 10° NNE visible
03 Apr - 02:37:14 10° N 02:38:49 13° NNE 02:40:27 10° ENE night (unlit)
03 Apr - 04:12:23 10° NW 04:15:37 83° SW 04:18:50 10° SE visible
03 Apr - 19:14:38 10° SSE 19:16:06 13° SE 19:17:42 10° E daylight
03 Apr - 20:49:04 10° WSW 20:52:13 48° NW 20:55:24 10° NE visible
04 Apr - 03:18:57 10° NW 03:22:03 43° NE 03:25:09 10° ESE night (unlit)
04 Apr - 04:56:26 10° W 04:58:12 14° SW 04:59:51 10° SSW night (unlit)
04 Apr - 19:55:25 10° SW 19:58:40 75° SE 20:01:55 10° NE visible
04 Apr - 21:33:36 10° WNW 21:35:25 14° NNW 21:37:11 10° N visible
05 Apr - 02:25:42 10° NNW 02:28:22 23° NNE 02:31:03 10° E night (unlit)
05 Apr - 04:01:54 10° WNW 04:04:46 29° SW 04:07:37 10° SSE night (unlit)
05 Apr - 19:02:13 10° SSW 19:05:09 32° SE 19:08:07 10° ENE daylight
05 Apr - 20:38:56 10° W 20:41:36 22° NNW 20:44:14 10° NNE visible
06 Apr - 01:32:43 10° N 01:34:33 14° NNE 01:36:26 10° ENE night (unlit)
06 Apr - 03:08:04 10° NW 03:11:16 69° SW 03:14:28 10° SE night (unlit)
06 Apr - 18:09:46 10° SSE 18:11:41 15° SE 18:13:40 10° E daylight
06 Apr - 19:44:44 10° WSW 19:47:51 41° NW 19:50:57 10° NE visible
07 Apr - 02:14:29 10° NW 02:17:39 51° NE 02:20:48 10° ESE night (unlit)
07 Apr - 03:52:28 10° WSW 03:53:44 12° SW 03:54:53 10° SSW night (unlit)
07 Apr - 18:50:55 10° SW 18:54:10 89° SSE 18:57:26 10° NE daylight
07 Apr - 20:29:25 10° NW 20:30:59 13° NNW 20:32:30 10° N visible
08 Apr - 01:21:07 10° NNW 01:23:54 26° NNE 01:26:41 10° E night (unlit)
08 Apr - 02:57:30 10° WNW 03:00:14 25° SW 03:02:56 10° S night (unlit)
08 Apr - 17:57:31 10° SSW 18:00:34 37° SE 18:03:38 10° ENE daylight
08 Apr - 19:34:32 10° W 19:37:03 20° NNW 19:39:33 10° NNE visible
